This demonstration page uses our WeatherBlox Daily Observations layout. Learn more.

Left ArrowRight Arrow

39.95238, -75.16362

Hourly Observations for May 5, 2015

Temp ( °F °C ) Dew Point ( °F °C ) Humidity (%) Winds ( mph kmh ) Pressure ( in mb ) Visibility ( mi km ) Precip ( " mm )
12:54 am 00:54 Mostly Clear 67 19.4 49 9.4 53 53 S 8 13 30.19 1023 10 16 0.00 0.00
1:54 am 01:54 Clear 65 18.3 49 9.4 56 56 S 8 13 30.19 1022 10 16 0.00 0.00
2:54 am 02:54 Mostly Clear 64 17.8 49 9.4 58 58 S 7 11 30.17 1022 10 16 0.00 0.00
3:54 am 03:54 Partly Cloudy 64 17.8 50 10 60 60 SW 5 7 30.17 1022 10 16 0.00 0.00
4:54 am 04:54 Mostly Clear 63 17.2 51 10.6 65 65 WSW 7 11 30.18 1022 10 16 0.00 0.00
5:54 am 05:54 Partly Cloudy 62 16.7 53 11.7 73 73 SSW 3 6 30.19 1022 10 16 0.00 0.00
6:54 am 06:54 Partly Cloudy 65 18.3 53 11.7 66 66 SW 9 15 30.21 1023 10 16 0.00 0.00
7:54 am 07:54 Mostly Cloudy 66 18.9 54 12.2 65 65 WSW 10 17 30.22 1024 10 16 0.00 0.00
8:54 am 08:54 Mostly Cloudy 70 21.1 56 13.3 61 61 W 9 15 30.24 1024 10 16 0.00 0.00
9:54 am 09:54 Mostly Cloudy 72 22.2 55 12.8 55 55 WSW 6 9 30.24 1024 10 16 0.00 0.00
10:54 am 10:54 Mostly Cloudy 74 23.3 55 12.8 52 52 WSW 7 11 30.24 1024 10 16 0.00 0.00
11:54 am 11:54 Mostly Cloudy 76 24.4 55 12.8 48 48 SW 5 7 30.24 1024 10 16 0.00 0.00
12:54 pm 12:54 Partly Cloudy 80 26.7 55 12.8 42 42 WSW 10 17 30.22 1023 10 16 0.00 0.00
1:54 pm 13:54 Partly Cloudy 81 27.2 55 12.8 41 41 SW 7 11 30.21 1023 10 16 0.00 0.00
2:54 pm 14:54 Partly Cloudy 84 28.9 55 12.8 37 37 WSW 12 19 30.19 1022 10 16 0.00 0.00
3:54 pm 15:54 Mostly Cloudy 83 28.3 55 12.8 38 38 WSW 13 20 30.17 1022 10 16 0.00 0.00
4:54 pm 16:54 Mostly Cloudy 83 28.3 55 12.8 38 38 W 10 17 30.16 1021 10 16 0.00 0.00
5:54 pm 17:54 Mostly Cloudy 83 28.3 58 14.4 43 43 WSW 10 17 30.16 1021 10 16 0.00 0.00
6:54 pm 18:54 Mostly Cloudy 82 27.8 55 12.8 40 40 W 10 17 30.15 1021 10 16 0.00 0.00
7:54 pm 19:54 Mostly Cloudy 81 27.2 55 12.8 41 41 W 10 17 30.16 1022 10 16 0.00 0.00
8:54 pm 20:54 Mostly Cloudy 80 26.7 55 12.8 42 42 WNW 7 11 30.18 1022 10 16 0.00 0.00
9:54 pm 21:54 Mostly Cloudy 78 25.6 56 13.3 47 47 W 6 9 30.20 1023 10 16 0.00 0.00
10:54 pm 22:54 Cloudy 75 23.9 58 14.4 55 55 SW 7 11 30.21 1023 10 16 0.00 0.00
11:54 pm 23:54 Mostly Cloudy 73 22.8 60 15.6 64 64 SW 10 17 30.21 1023 10 16 0.00 0.00

Powered by AerisWeather